sat.trackr.live / text

‹ back to catalog

STARLINK-32922

NORAD 62926 · 2025-027V

PAYLOAD ACTIVE UNKNOWN

§ Identity

Operator
Country
US
Launch date
2025-02-08
Launch site
AFETR
Launch vehicle
Mass (kg)
RCS (m²)

Purposes: comms

External: N2YO · Heavens-Above · Gunter

§ Orbital elements

Epoch: 2026-05-24T22:49:09.488928Z

Period
94.27 min
Inclination
43.0059°
Eccentricity
0.0001491
Mean motion
15.27596004 rev/d
Perigee alt
482.0 km
Apogee alt
484.0 km
Semi-major
6,861.1 km
B*
7.6598e-4
RAAN
58.3393°
Arg perigee
240.2243°
Mean anomaly
119.8461°
Rev number
7,320

§ Raw data

STARLINK-329221 62926U 25027V   26144.95080427  .00020886  00000+0  76598-3 0  99942 62926  43.0059  58.3393 0001491 240.2243 119.8461 15.27596004 73202

JSON: /api/v1/satellites/62926 · /tle

For live sub-satellite position, see the globe view (requires WebGL).

§ Visibility from observer

Set your observer location to see the next 7 days of passes ≥ 10°. The values pass through the URL so the page stays shareable.

No JS? Fill the form by hand. The geolocation button needs JavaScript.